Regional Weather Roundup
Issued by NWS Cleveland, OH

Home | Current Version | Previous Version | Graphics & Text | Print | Product List | Glossary On
Versions: 1 2 3 4 5 6 7 8 9 10 11 12 13 14 15 16 17 18 19 20 21 22 23 24 25 26 27 28 29 30 31 32 33 34 35 36 37 38 39 40 41 42 43 44 45 46 47 48 49 50
637
ASUS41 KCLE 221410
RWRCLE
OHIO REGIONAL WEATHER ROUNDUP
NATIONAL WEATHER SERVICE WILMINGTON, OH
1000 AM EDT FRI MAY 22 2015

NOTE: "FAIR" INDICATES FEW OR NO CLOUDS BELOW 12,000 FEET WITH NO
SIGNIFICANT WEATHER AND/OR OBSTRUCTIONS TO VISIBILITY.

OHZ001>008-015>018-024>027-034-035-043-044-221500-
   NORTHWEST OHIO

CITY           SKY/WX    TMP DP  RH WIND       PRES   REMARKS
DEFIANCE       SUNNY     61  31  32 N7        30.17R
FINDLAY        SUNNY     60  42  51 NW8       30.16R
TOLEDO EXPRESS SUNNY     57  29  34 NW9       30.16R
TOLEDO EXEC    MOSUNNY   60  30  32 N7        30.17R
LIMA           SUNNY     58  44  60 NW9       30.17R
$$

OHZ009>014-019>023-028>033-038-089-221500-
   NORTHEAST OHIO

CITY           SKY/WX    TMP DP  RH WIND       PRES   REMARKS
CLE-HOPKINS    MOSUNNY   55  39  54 N8        30.15R
CLE-LAKEFRONT  MOSUNNY   55  35  47 N9        30.13R
CUY CO. ARPT   SUNNY     55  34  44 N12       30.13R
LORAIN-ELYRIA  SUNNY     56  39  53 N12       30.14R
ASHTABULA      MOSUNNY   52  30  43 NW10      30.11R
AKRON-CANTON   MOSUNNY   60  43  53 W9        30.12R
WOOSTER        MOSUNNY   59  41  51 NW13      30.12R
MANSFIELD      MOSUNNY   58  42  55 NW14      30.13S
YOUNGSTOWN     CLOUDY    50  43  77 W9        30.09S
$$

OHZ042-051>053-060>062-070>072-077>081-221500-
  SOUTHWEST OHIO

CITY           SKY/WX    TMP DP  RH WIND       PRES   REMARKS
CINC-COVINGTON SUNNY     59  46  62 W8        30.22R
CINC-LUNKEN    SUNNY     60  45  57 W8        30.23R
HAMILTON       SUNNY     59  46  62 VRB6      30.22R
DAYTON         SUNNY     62  47  57 W13       30.19R
WRIGHT-PAT AFB SUNNY     58  47  66 W8        30.18S
DAYTON GENERAL SUNNY     57  45  64 W6        30.19R
WILMINGTON     SUNNY     58  44  60 W10       30.20R
$$

OHZ036-037-039>041-045>050-054>059-063>069-073>076-082>088-221500-
  CENTRAL AND SOUTHEAST OHIO

CITY           SKY/WX    TMP DP  RH WIND       PRES   REMARKS
COLUMBUS       SUNNY     56  45  66 SW7       30.16S
OSU AIRPORT    SUNNY     60  44  55 VRB6      30.16S
BOLTON FIELD   SUNNY     59  46  63 SW6       30.18R
RICKENBACK AFB SUNNY     58  46  65 SW7       30.17F
NEWARK         SUNNY     58  46  64 S9        30.15S
MARION         PTSUNNY   57  43  59 NW8       30.16R
LANCASTER      SUNNY     58  45  62 SW8       30.19R
ZANESVILLE     SUNNY     57  44  62 SW6       30.16S
NEW PHILLY     MOSUNNY   59  42  53 VRB5      30.14S
$$



USA.gov is the U.S. government's official web portal to all federal, state and local government web resources and services.